Regional Weather Roundup
Issued by NWS

Home | Current Version | Previous Version | Graphics & Text | Print | Product List | Glossary Off
Versions: 1 2 3 4 5 6 7 8 9 10 11 12 13 14 15 16 17 18 19 20 21 22 23 24 25 26 27 28 29 30 31 32 33 34 35 36 37 38 39 40 41 42 43 44 45 46 47 48 49 50

000
ASUS43 KFSD 310910
RWRSD

WEATHER ROUNDUP FOR SOUTH DAKOTA
NATIONAL WEATHER SERVICE SIOUX FALLS SD
400 AM CDT SUN JUL 31 2016

NOTE: "FAIR" INDICATES FEW OR NO CLOUDS BELOW 12,000 FEET WITH NO
SIGNIFICANT WEATHER AND/OR OBSTRUCTIONS TO VISIBILITY.


SDZ001>005-009-010-012>017-311000-
NORTHWEST AND NORTH CENTRAL SOUTH DAKOTA

CITY           SKY/WX    TMP DP  RH WIND       PRES   REMARKS
BUFFALO          N/A     65  58  78 S9        29.72R
FAITH            N/A     64  61  90 SE14      29.78S
MOBRIDGE       CLOUDY    71  64  78 S15       29.77S
$$

SDZ012>016-024>037-041>051-057-063-072>074-311000-
SOUTHWEST AND SOUTH CENTRAL SOUTH DAKOTA

CITY           SKY/WX    TMP DP  RH WIND       PRES   REMARKS
RAPID CTY ARPT CLOUDY    66  56  70 SW20      29.82F
PIERRE         CLOUDY    68  63  84 SW3       29.77R
CUSTER         MOCLDY    63  50  62 VRB5      30.00S
ELLSWORTH AFB  CLOUDY    68  56  67 SW9       29.80S
PHILIP         MOCLDY    71  58  63 S14G24    29.77F
PINE RIDGE     CLEAR     71  53  52 SE14      29.85F
WINNER         LGT RAIN  68  64  87 SW9       29.88F
$$

SDZ004>011-016>023-039-040-311000-
NORTHEAST SOUTH DAKOTA

CITY           SKY/WX    TMP DP  RH WIND       PRES   REMARKS
ABERDEEN       PTCLDY    67  61  81 SE10      29.84F
WATERTOWN      CLOUDY    64  58  80 SE10      29.91F
BROOKINGS      PTCLDY    63  60  90 SE9       29.92F
SISSETON         N/A     59  58  96 SE3       29.89F
$$

SDZ017-020-022-023-036>040-048>070-311000-
SOUTHEAST SOUTH DAKOTA

CITY           SKY/WX    TMP DP  RH WIND       PRES   REMARKS
SIOUX FALLS    PTCLDY    68  62  81 SE10      29.93S
HURON          CLOUDY    71  63  75 SE13      29.83F
CHAMBERLAIN    MOCLDY    73  64  72 S10G22    29.81F
MITCHELL       CLOUDY    73  65  75 SE12      29.87F
YANKTON        MOCLDY    70  64  83 SE8       29.89F
$$

ABBREVIATIONS USED IN REMARKS
   TC - TEMPERATURE IN CELSIUS
  WCI - WIND CHILL INDEX
   HX - HEAT INDEX
  VSB - VISIBILITY




USA.gov is the U.S. government's official web portal to all federal, state and local government web resources and services.